Kelso-Longview, WA
on Saturday, November 3, 2012

Saturday
Previous Day Next Day
Daily Summary
 ActualAverage (KSPB)Record (KSPB)
Temperature
Mean Temperature °F °F  
Max Temperature 60°F °F 73°F (2010)
Min Temperature 53°F °F 24°F (2002)
Degree Days
Heating Degree Days 8    
Month to date heating degree days  
Since 1 July heating degree days  
Cooling Degree Days 0    
Month to date cooling degree days  
Year to date cooling degree days  
Growing Degree Days6 (Base °F )  
Moisture
Dew Point 53°F   
Average Humidity 87    
Maximum Humidity 94    
Minimum Humidity 77    
Precipitation
Precipitation 0.10 in in 1.04 in (2005)
Month to date precipitation  
Year to date precipitation  
Wind
Wind Speed 7 mph   
Max Wind Speed 16 mph   
Max Gust Speed 22 mph   
Visibility 8 miles   
Events     

Key: T is trace of precipitation, MM is missing value
Source: NWS Daily Summary
Time(PDT)TemperatureDew PointHumidity Pressure Visibility Wind DirectionWind SpeedGust SpeedPrecipitationEvents Conditions
12:15 AM 53.6°F 50.0°F 88% 29.99 in 9.0 miles South 4.6 mph - N/A   Overcast
12:35 AM 53.6°F 50.0°F 88% 30.00 in 6.0 miles SSE 6.9 mph - 0.01 in   Overcast
1:15 AM 53.6°F 51.8°F 94% 29.99 in 8.0 miles SSE 3.5 mph - 0.03 in   Overcast
1:35 AM 53.6°F 50.0°F 88% 29.99 in 7.0 miles SSE 4.6 mph - 0.04 in   Overcast
1:55 AM 53.6°F 50.0°F 88% 29.99 in 6.0 miles SSE 4.6 mph - 0.05 in   Overcast
2:15 AM 53.6°F 51.8°F 94% 29.99 in 8.0 miles SSE 6.9 mph - 0.01 in   Overcast
2:35 AM 53.6°F 50.0°F 88% 29.99 in 9.0 miles SSE 5.8 mph - 0.01 in   Overcast
2:55 AM 53.6°F 51.8°F 94% 30.00 in 10.0 miles SSE 5.8 mph - 0.01 in   Overcast
3:15 AM 53.6°F 51.8°F 94% 30.00 in 9.0 miles SSE 8.1 mph - N/A   Overcast
3:35 AM 53.6°F 51.8°F 94% 30.00 in 10.0 miles SSE 6.9 mph - N/A   Overcast
3:55 AM 53.6°F 51.8°F 94% 30.00 in 10.0 miles SSE 9.2 mph - N/A   Mostly Cloudy
4:15 AM 53.6°F 51.8°F 94% 30.01 in 9.0 miles SSE 6.9 mph - 0.01 in   Overcast
4:35 AM 53.6°F 51.8°F 94% 30.01 in 5.0 miles SSE 5.8 mph - 0.01 in   Overcast
4:55 AM 53.6°F 51.8°F 94% 30.01 in 7.0 miles SSE 5.8 mph - 0.01 in   Overcast
5:15 AM 53.6°F 51.8°F 94% 30.02 in 4.0 miles SSE 5.8 mph - 0.01 in   Overcast
5:35 AM 53.6°F 51.8°F 94% 30.02 in 5.0 miles SSE 6.9 mph - 0.01 in   Overcast
5:55 AM 53.6°F 51.8°F 94% 30.02 in 5.0 miles SSE 6.9 mph - 0.01 in   Overcast
6:15 AM 53.6°F 51.8°F 94% 30.02 in 7.0 miles South 4.6 mph - N/A   Overcast
6:35 AM 53.6°F 51.8°F 94% 30.02 in 10.0 miles SSE 3.5 mph - N/A   Overcast
6:55 AM 53.6°F 51.8°F 94% 30.02 in 10.0 miles SSE 5.8 mph - N/A   Overcast
7:15 AM 55.4°F 51.8°F 88% 30.03 in 10.0 miles SSE 12.7 mph - N/A   Overcast
7:35 AM 55.4°F 51.8°F 88% 30.03 in 10.0 miles SSE 10.4 mph - 0.01 in   Overcast
7:55 AM 55.4°F 51.8°F 88% 30.04 in 10.0 miles SSE 11.5 mph - 0.01 in   Overcast
8:15 AM 55.4°F 51.8°F 88% 30.05 in 10.0 miles SSE 9.2 mph - N/A   Overcast
8:35 AM 55.4°F 51.8°F 88% 30.06 in 10.0 miles SSE 6.9 mph - N/A   Overcast
8:55 AM 55.4°F 51.8°F 88% 30.05 in 10.0 miles SSE 10.4 mph - N/A   Overcast
9:15 AM 55.4°F 51.8°F 88% 30.06 in 10.0 miles SSE 9.2 mph - N/A   Overcast
9:35 AM 55.4°F 51.8°F 88% 30.06 in 10.0 miles SSE 13.8 mph 17.3 mph N/A   Overcast
9:55 AM 57.2°F 51.8°F 82% 30.07 in 10.0 miles SSE 10.4 mph 18.4 mph N/A   Overcast
10:15 AM 57.2°F 51.8°F 82% 30.08 in 10.0 miles SSE 9.2 mph - N/A   Overcast
10:35 AM 57.2°F 51.8°F 82% 30.08 in 10.0 miles South 10.4 mph 17.3 mph N/A   Overcast
10:55 AM 57.2°F 51.8°F 82% 30.08 in 10.0 miles SSE 9.2 mph 17.3 mph N/A   Overcast
11:15 AM 57.2°F 53.6°F 88% 30.09 in 10.0 miles SSE 10.4 mph 18.4 mph N/A   Overcast
11:35 AM 57.2°F 53.6°F 88% 30.10 in 10.0 miles SSE 11.5 mph 19.6 mph N/A   Overcast
11:55 AM 57.2°F 53.6°F 88% 30.11 in 10.0 miles SSE 11.5 mph - N/A   Overcast
12:15 PM 57.2°F 53.6°F 88% 30.09 in 10.0 miles SSE 15.0 mph 21.9 mph N/A   Overcast
12:35 PM 59.0°F 53.6°F 82% 30.09 in 10.0 miles SSE 12.7 mph 21.9 mph N/A   Overcast
12:55 PM 59.0°F 53.6°F 82% 30.10 in 10.0 miles SSE 16.1 mph 19.6 mph N/A   Overcast
1:15 PM 59.0°F 53.6°F 82% 30.11 in 10.0 miles SSE 12.7 mph 18.4 mph N/A   Overcast
1:35 PM 60.8°F 53.6°F 77% 30.10 in 10.0 miles SSE 11.5 mph 18.4 mph N/A   Overcast
1:55 PM 60.8°F 53.6°F 77% 30.10 in 10.0 miles SSE 12.7 mph 17.3 mph N/A   Overcast
2:15 PM 60.8°F 53.6°F 77% 30.11 in 10.0 miles SSE 11.5 mph 16.1 mph N/A   Overcast
2:35 PM 60.8°F 53.6°F 77% 30.11 in 10.0 miles SSE 10.4 mph 18.4 mph N/A   Overcast
2:55 PM 60.8°F 53.6°F 77% 30.11 in 10.0 miles SSE 11.5 mph 18.4 mph N/A   Overcast
3:15 PM 60.8°F 53.6°F 77% 30.11 in 10.0 miles SSE 10.4 mph 18.4 mph N/A   Overcast
3:35 PM 60.8°F 53.6°F 77% 30.11 in 10.0 miles SSE 11.5 mph 16.1 mph N/A   Overcast
3:55 PM 60.8°F 53.6°F 77% 30.12 in 10.0 miles SSE 9.2 mph - N/A   Overcast
4:15 PM 60.8°F 53.6°F 77% 30.13 in 10.0 miles SSE 9.2 mph - N/A   Overcast
4:35 PM 60.8°F 53.6°F 77% 30.13 in 10.0 miles SSE 9.2 mph - N/A   Overcast
4:55 PM 60.8°F 53.6°F 77% 30.13 in 10.0 miles SSE 5.8 mph - N/A   Overcast
5:15 PM 60.8°F 53.6°F 77% 30.14 in 10.0 miles South 5.8 mph - N/A   Overcast
5:35 PM 59.0°F 53.6°F 82% 30.14 in 10.0 miles SSW 4.6 mph - N/A   Overcast
5:55 PM 59.0°F 55.4°F 88% 30.15 in 8.0 miles South 3.5 mph - N/A   Overcast
6:15 PM 59.0°F 55.4°F 88% 30.14 in 9.0 miles Calm Calm - N/A   Overcast
6:35 PM 57.2°F 55.4°F 94% 30.15 in 10.0 miles Calm Calm - N/A   Overcast
6:55 PM 57.2°F 55.4°F 94% 30.16 in 5.0 miles Calm Calm - N/A   Overcast
7:15 PM 57.2°F 55.4°F 94% 30.17 in 3.0 miles Calm Calm - N/A   Overcast
7:35 PM 57.2°F 55.4°F 94% 30.16 in 8.0 miles Calm Calm - 0.01 in   Overcast
7:55 PM 57.2°F 55.4°F 94% 30.16 in 4.0 miles Calm Calm - 0.01 in   Overcast
8:15 PM 57.2°F 55.4°F 94% 30.16 in 5.0 miles Calm Calm - N/A   Overcast
8:35 PM 57.2°F 53.6°F 88% 30.16 in 4.0 miles Calm Calm - N/A   Overcast
8:55 PM 57.2°F 53.6°F 88% 30.15 in 3.0 miles Calm Calm - N/A   Overcast
9:15 PM 57.2°F 53.6°F 88% 30.15 in 3.0 miles Calm Calm - N/A   Overcast
9:35 PM 57.2°F 53.6°F 88% 30.16 in 4.0 miles Calm Calm - N/A   Overcast
9:55 PM 57.2°F 53.6°F 88% 30.17 in 1.8 miles Calm Calm - N/A   Overcast
10:15 PM 57.2°F 53.6°F 88% 30.17 in 5.0 miles Calm Calm - N/A   Overcast
10:35 PM 57.2°F 53.6°F 88% 30.16 in 8.0 miles Calm Calm - N/A   Overcast
10:55 PM 55.4°F 53.6°F 94% 30.17 in 7.0 miles Calm Calm - N/A   Overcast
11:15 PM 55.4°F 53.6°F 94% 30.17 in 9.0 miles Calm Calm - N/A   Overcast
11:35 PM 57.2°F 53.6°F 88% 30.17 in 10.0 miles SSE 3.5 mph - N/A   Overcast
Moon Phase
Nov. 03 Nov. 06 Nov. 13 Nov. 20 Nov. 28
Sunrise:07:56 AM (PDT) Moon Rise:09:34 PM (PDT)11/3
Sunset:05:53 PM (PDT) Moon Set:12:09 PM (PDT)11/3

Copyright © 2014 The Weather Underground, Inc.